Regional Weather Roundup
Issued by NWS

Home | Current Version | Previous Version | Graphics & Text | Print | Product List | Glossary On
Versions: 1 2 3 4 5 6 7 8 9 10 11 12 13 14 15 16 17 18 19 20 21 22 23 24 25 26 27 28 29 30 31 32 33 34 35 36 37 38 39 40 41 42 43 44 45 46 47 48 49 50
000
ASUS44 KMEG 310900
RWRTN
TENNESSEE HOURLY STATE WEATHER ROUNDUP
NATIONAL WEATHER SERVICE MEMPHIS TN
400 AM CDT FRI OCT 31 2014

TNZ002-004-019-021-049-052-054-088>092-311000-
WEST TENNESSEE

CITY           SKY/WX    TMP DP  RH WIND       PRES   REMARKS
MEMPHIS INTL   CLEAR     54  48  80 NW5       29.97F
NWS MEMPHIS      N/A     47 N/A N/A MISG        N/A
JACKSON        PTCLDY    48  46  93 N5        29.98S FOG
DYERSBURG      CLEAR     46  36  66 CALM      30.01S
UNION CITY     CLOUDY    48  46  93 CALM      29.99R
PARIS          CLOUDY    48  46  93 CALM      29.99F
LEXINGTON      CLOUDY    46  45  93 E3        29.97F
SAVANNAH       CLOUDY    46  46 100 CALM      29.98F
$$

TNZ008-025-027-028-033-062-065-066-311000-
NORTH MIDDLE TENNESSEE

CITY           SKY/WX    TMP DP  RH WIND       PRES   REMARKS
NASHVILLE      CLOUDY    50  45  83 CALM      29.99R
CLARKSVILLE    CLOUDY    50  46  86 SW5       29.99F
CROSSVILLE     CLOUDY    42  37  82 CALM      29.98F
$$

TNZ061-075-076-078-094-096-097-311000-
SOUTH MIDDLE TENNESSEE

CITY           SKY/WX    TMP DP  RH WIND       PRES   REMARKS
SHELBYVILLE    MOCLDY    46  45  93 CALM      29.99F
$$

TNZ017-018-042-046-047-311000-
NORTHEAST TENNESSEE

CITY           SKY/WX    TMP DP  RH WIND       PRES   REMARKS
TRI CITIES     FOG       34  34 100 CALM      29.98F VSB 1/8
ELIZABETHTON   SUNNY     34  34 100 CALM      29.98S
$$

TNZ012-013-036-069-073-074-311000-
CENTRAL EAST TENNESSEE

CITY           SKY/WX    TMP DP  RH WIND       PRES   REMARKS
KNOXVILLE      CLEAR     41  39  93 CALM      29.97F
OAK RIDGE      PTCLDY    40  38  93 CALM      30.00F
GATLINBURG     SUNNY     34  34 100 CALM      29.98F
$$

TNZ083-085-099-311000-
SOUTHEAST TENNESSEE

CITY           SKY/WX    TMP DP  RH WIND       PRES   REMARKS
CHATTANOOGA    MOCLDY    44  41  89 E3        29.99F
$$

SKY/WX REPORTED AS FAIR MEANS FEW OR NO CLOUDS BELOW
12 THOUSAND FEET.




USA.gov is the U.S. government's official web portal to all federal, state and local government web resources and services.